THORAD DELTA 1 DEB, 8175

Orbit data source: Space-Track

THORAD DELTA 1 DEB, 8175 is space debris in SSO originally from a launch on Fri, 15 Nov 1974 UTC launched from the Air Force Western Test Range (AFWTR). Debris objects in space refer to the collection of defunct objects orbiting the Earth. Examples of debris include non-operational satellites, rocket bodies, and fragments generated from explosions, collisions, or faulty payload assembly.

Loading next visibility...
Identifier
8175, 1974-089AR
Orbit
SSO
Country
Flag of USUS
Related business
Manufacturer
Unknown
Mission
Spacecraft
Bus & Motor
Unknown
Mass
Unknown
Launch date (UTC)
1974-11-15 (51 years ago)
Launch vehicle
Unknown
Launch site
Air Force Western Test Range (AFWTR)
Object type
Payload
Rocket body
Debris
Shape & HBR
Unknown shape, 0.1 m
Radar Cross Section
Small (<0.1 m²)

Expand to show TLE details & history
Last TLE update: 23 hours ago

TLE from 23 hours ago
0 THORAD DELTA 1 DEB
1 08175U 74089AR  25291.04669244  .00008167  00000-0  41326-1 0  9992
2 08175 102.6376 208.2877 0168528 117.1429 264.6488 12.65913755298817
Epoch: 2025-10-18T01:07Z
TLE epoch observation values (Epoch: 2025-10-18T01:07:14.226Z)
Latitude
19.37464°
Longitude
160.19515°
Altitude
1,415.159 km
Speed
7.148 km/s
True Right ascension
13h 35m 09s
True Declination
19° 16' 35"
Sunlit
Object was in daylight at epoch
Visualization orbit readout
Latitude
Unknown
Longitude
Unknown
Altitude
Unknown
Speed
Unknown
Apparent Right ascension
Unknown
Apparent Declination
Unknown
Sunlit
N/A
Visualization observer readout
Local Sidereal Time
19:26:42
Azimuth
Unknown
Elevation
Unknown
Doppler factor
Unknown
Orbital elements
Apogee altitude
1,527.229 km
Perigee altitude
1,265.19 km
Semi-major axis
7,774.346 km
Eccentricity
0.01685
Inclination
102.6376°
RAAN
208.2877°
Arg. of periapsis
117.1429°
True anomaly
262.73016°
Mean anomaly
264.6488°
Eccentric anomaly
263.68906°
Mean motion
3.16627 °/min
Orbital period
113.7 mins
BSTAR
0.041326
Loading maneuver chart data...
Computing Atmospheric mass density...

Documentation

Showing up to 5 results
|